When you browse on this site, cookies collect data to enhance your experience and personalize the content and advertising you see.
Visit our Privacy Policy to learn more. By continuing to use the site, you agree to this use of cookies and data.
  • In Österreich
  • Länderverzeichnis
  • Für 7 Tage
  • Wassertemperatur
  • Satellitenkarten
  • Wetterkarte
  • News
  • Widgets
  • user-avatar
    Anmelden

    Stündliche Wetter Town 'n' Country

    Heute, 25 April, Donnerstag

    Zeit Temperatur Niederschläge Wind Luftdruck Luftfeuchtigkeit
    00:00 +24°C° 0 mm 2 m/S 761 mmHg 69%
    01:00 +24°C° 0 mm 2 m/S 761 mmHg 69%
    02:00 +24°C° 0 mm 3 m/S 761 mmHg 69%
    03:00 +22°C° 0 mm 3 m/S 761 mmHg 69%
    04:00 +22°C° 0 mm 3 m/S 761 mmHg 70%
    05:00 +22°C° 0 mm 3 m/S 761 mmHg 70%
    06:00 +23°C° 0 mm 2 m/S 761 mmHg 70%
    07:00 +24°C° 0 mm 2 m/S 761 mmHg 65%
    08:00 +26°C° 0 mm 2 m/S 761 mmHg 60%
    09:00 +27°C° 0 mm 3 m/S 762 mmHg 55%
    10:00 +28°C° 0 mm 3 m/S 761 mmHg 52%
    11:00 +29°C° 0 mm 4 m/S 761 mmHg 48%
    12:00 +32°C° 0 mm 4 m/S 761 mmHg 45%
    13:00 +30°C° 0 mm 4 m/S 760 mmHg 47%
    14:00 +30°C° 0 mm 5 m/S 760 mmHg 50%
    15:00 +30°C° 0 mm 5 m/S 760 mmHg 52%
    16:00 +29°C° 0 mm 5 m/S 760 mmHg 56%
    17:00 +28°C° 0 mm 4 m/S 760 mmHg 60%
    18:00 +27°C° 0 mm 4 m/S 760 mmHg 63%
    19:00 +26°C° 0 mm 4 m/S 760 mmHg 67%
    20:00 +26°C° 0 mm 4 m/S 760 mmHg 70%
    21:00 +26°C° 0 mm 4 m/S 760 mmHg 73%
    22:00 +25°C° 0 mm 4 m/S 760 mmHg 76%
    23:00 +25°C° 0 mm 4 m/S 760 mmHg 79%

    Morgen, 26 April, Freitag

    Zeit Temperatur Niederschläge Wind Luftdruck Luftfeuchtigkeit
    00:00 +25°C° 0 mm 4 m/S 760 mmHg 82%
    01:00 +25°C° 0 mm 4 m/S 759 mmHg 83%
    02:00 +25°C° 0 mm 4 m/S 759 mmHg 83%
    03:00 +25°C° 0 mm 4 m/S 759 mmHg 84%
    04:00 +25°C° 0 mm 4 m/S 759 mmHg 82%
    05:00 +25°C° 0 mm 5 m/S 759 mmHg 79%
    06:00 +25°C° 0 mm 5 m/S 759 mmHg 77%
    07:00 +26°C° 0.7 mm 6 m/S 759 mmHg 73%
    08:00 +27°C° 0.7 mm 7 m/S 759 mmHg 68%
    09:00 +28°C° 0.7 mm 8 m/S 759 mmHg 64%
    10:00 +29°C° 0.9 mm 8 m/S 759 mmHg 62%
    11:00 +29°C° 0.9 mm 7 m/S 759 mmHg 60%
    12:00 +30°C° 0.9 mm 7 m/S 759 mmHg 59%
    13:00 +29°C° 0 mm 7 m/S 758 mmHg 56%
    14:00 +29°C° 0 mm 7 m/S 758 mmHg 54%
    15:00 +29°C° 0 mm 7 m/S 758 mmHg 52%
    16:00 +27°C° 0 mm 6 m/S 758 mmHg 56%
    17:00 +26°C° 0 mm 6 m/S 759 mmHg 60%
    18:00 +25°C° 0 mm 5 m/S 759 mmHg 64%
    19:00 +25°C° 0 mm 5 m/S 759 mmHg 63%
    20:00 +25°C° 0 mm 5 m/S 760 mmHg 63%
    21:00 +25°C° 0 mm 5 m/S 761 mmHg 62%
    22:00 +23°C° 0 mm 5 m/S 761 mmHg 58%
    23:00 +23°C° 0 mm 5 m/S 761 mmHg 55%

    übermorgen, 27 April, Samstag

    Zeit Temperatur Niederschläge Wind Luftdruck Luftfeuchtigkeit
    00:00 +22°C° 0 mm 5 m/S 761 mmHg 51%
    01:00 +22°C° 0 mm 5 m/S 761 mmHg 49%
    02:00 +21°C° 0 mm 5 m/S 761 mmHg 48%
    03:00 +21°C° 0 mm 5 m/S 761 mmHg 46%
    04:00 +20°C° 0 mm 4 m/S 761 mmHg 47%
    05:00 +20°C° 0 mm 4 m/S 762 mmHg 48%
    06:00 +20°C° 0 mm 4 m/S 762 mmHg 48%
    07:00 +22°C° 0 mm 4 m/S 762 mmHg 43%
    08:00 +23°C° 0 mm 4 m/S 763 mmHg 38%
    09:00 +26°C° 0 mm 4 m/S 763 mmHg 33%
    10:00 +28°C° 0 mm 3 m/S 763 mmHg 31%
    11:00 +29°C° 0 mm 2 m/S 763 mmHg 29%
    12:00 +30°C° 0 mm 2 m/S 762 mmHg 27%
    13:00 +30°C° 0 mm 2 m/S 762 mmHg 27%
    14:00 +31°C° 0 mm 2 m/S 761 mmHg 26%
    15:00 +31°C° 0 mm 2 m/S 760 mmHg 26%
    16:00 +30°C° 0 mm 2 m/S 760 mmHg 29%
    17:00 +29°C° 0 mm 3 m/S 760 mmHg 33%
    18:00 +28°C° 0 mm 3 m/S 761 mmHg 36%
    19:00 +27°C° 0 mm 3 m/S 761 mmHg 40%
    20:00 +26°C° 0 mm 3 m/S 761 mmHg 43%
    21:00 +25°C° 0 mm 3 m/S 762 mmHg 46%
    22:00 +24°C° 0 mm 3 m/S 762 mmHg 50%
    23:00 +24°C° 0 mm 3 m/S 762 mmHg 53%

    28 April, Sonntag

    Zeit Temperatur Niederschläge Wind Luftdruck Luftfeuchtigkeit
    00:00 +22°C° 0 mm 3 m/S 762 mmHg 57%
    01:00 +22°C° 0 mm 3 m/S 762 mmHg 59%
    02:00 +21°C° 0 mm 3 m/S 761 mmHg 62%
    03:00 +21°C° 0 mm 3 m/S 761 mmHg 65%
    04:00 +21°C° 0 mm 3 m/S 762 mmHg 66%
    05:00 +22°C° 0 mm 3 m/S 762 mmHg 68%
    06:00 +22°C° 0 mm 4 m/S 762 mmHg 69%
    07:00 +25°C° 0 mm 3 m/S 763 mmHg 64%
    08:00 +27°C° 0 mm 3 m/S 763 mmHg 59%
    09:00 +28°C° 0 mm 3 m/S 763 mmHg 54%
    10:00 +30°C° 0 mm 2 m/S 763 mmHg 49%
    11:00 +31°C° 0 mm 2 m/S 763 mmHg 44%
    12:00 +32°C° 0 mm 2 m/S 763 mmHg 39%
    13:00 +32°C° 0 mm 2 m/S 762 mmHg 40%
    14:00 +33°C° 0 mm 3 m/S 762 mmHg 40%
    15:00 +33°C° 0 mm 3 m/S 761 mmHg 40%
    16:00 +32°C° 0 mm 4 m/S 761 mmHg 47%
    17:00 +29°C° 0 mm 4 m/S 762 mmHg 54%
    18:00 +28°C° 0 mm 4 m/S 762 mmHg 61%
    19:00 +27°C° 0 mm 4 m/S 762 mmHg 63%
    20:00 +26°C° 0 mm 3 m/S 763 mmHg 66%
    21:00 +26°C° 0 mm 3 m/S 763 mmHg 68%
    22:00 +25°C° 0 mm 3 m/S 763 mmHg 68%
    23:00 +25°C° 0 mm 3 m/S 763 mmHg 67%

    29 April, Montag

    Zeit Temperatur Niederschläge Wind Luftdruck Luftfeuchtigkeit
    00:00 +24°C° 0 mm 3 m/S 763 mmHg 66%
    01:00 +24°C° 0 mm 3 m/S 763 mmHg 67%
    02:00 +24°C° 0 mm 3 m/S 763 mmHg 68%
    03:00 +22°C° 0 mm 3 m/S 763 mmHg 69%
    04:00 +22°C° 0 mm 3 m/S 764 mmHg 70%
    05:00 +22°C° 0 mm 3 m/S 764 mmHg 70%
    06:00 +22°C° 0 mm 3 m/S 765 mmHg 70%
    07:00 +25°C° 0 mm 3 m/S 765 mmHg 62%
    08:00 +27°C° 0 mm 4 m/S 765 mmHg 54%
    09:00 +29°C° 0 mm 4 m/S 766 mmHg 46%
    10:00 +30°C° 0 mm 5 m/S 765 mmHg 42%
    11:00 +32°C° 0 mm 5 m/S 765 mmHg 38%
    12:00 +34°C° 0 mm 5 m/S 765 mmHg 33%
    13:00 +34°C° 0 mm 5 m/S 764 mmHg 34%
    14:00 +34°C° 0 mm 5 m/S 764 mmHg 34%
    15:00 +35°C° 0 mm 5 m/S 764 mmHg 34%
    16:00 +33°C° 0 mm 6 m/S 764 mmHg 40%
    17:00 +32°C° 0 mm 6 m/S 764 mmHg 46%
    18:00 +30°C° 0 mm 6 m/S 765 mmHg 53%
    19:00 +29°C° 0 mm 6 m/S 765 mmHg 58%
    20:00 +28°C° 0 mm 6 m/S 766 mmHg 63%
    21:00 +26°C° 0 mm 6 m/S 766 mmHg 68%
    22:00 +26°C° 0 mm 6 m/S 766 mmHg 72%
    23:00 +25°C° 0 mm 5 m/S 766 mmHg 75%

    30 April, Dienstag

    Zeit Temperatur Niederschläge Wind Luftdruck Luftfeuchtigkeit
    00:00 +23°C° 0 mm 5 m/S 766 mmHg 79%
    01:00 +23°C° 0 mm 5 m/S 766 mmHg 81%
    02:00 +23°C° 0 mm 4 m/S 766 mmHg 83%
    03:00 +22°C° 0 mm 4 m/S 766 mmHg 85%
    04:00 +23°C° 0 mm 4 m/S 766 mmHg 83%
    05:00 +23°C° 0 mm 5 m/S 766 mmHg 82%
    06:00 +23°C° 0 mm 5 m/S 766 mmHg 81%
    07:00 +26°C° 0 mm 5 m/S 766 mmHg 72%
    08:00 +28°C° 0 mm 5 m/S 767 mmHg 64%
    09:00 +29°C° 0 mm 6 m/S 767 mmHg 56%
    10:00 +32°C° 0 mm 5 m/S 766 mmHg 51%
    11:00 +33°C° 0 mm 5 m/S 766 mmHg 46%
    12:00 +34°C° 0 mm 5 m/S 766 mmHg 41%
    13:00 +35°C° 0 mm 4 m/S 765 mmHg 40%
    14:00 +35°C° 0 mm 4 m/S 765 mmHg 40%
    15:00 +35°C° 0 mm 3 m/S 764 mmHg 40%
    16:00 +34°C° 0 mm 4 m/S 765 mmHg 43%
    17:00 +33°C° 0 mm 4 m/S 765 mmHg 47%
    18:00 +32°C° 0 mm 5 m/S 765 mmHg 51%
    19:00 +30°C° 0 mm 5 m/S 766 mmHg 57%
    20:00 +29°C° 0 mm 6 m/S 766 mmHg 63%
    21:00 +27°C° 0 mm 7 m/S 767 mmHg 68%
    22:00 +27°C° 0 mm 6 m/S 766 mmHg 72%
    23:00 +26°C° 0 mm 6 m/S 766 mmHg 75%
    Mehr zeigen